Wind_Speed
23 23 25 26 25 23 23 22 20 19 20 20 20 17 15 15 13 12 13 11 12 12 12 15 19 18 20 21 22 9 20 25 26 25 24 21 22 23 24 25 27 24 19 16 21 20 21
24 23 25 25 25 23 22 22 20 19 20 20 18 16 14 13 13 11 15 10 14 12 12 13 17 18 19 20 20 17 19 25 25 24 23 21 19 21 20 20 26 22 16 16 20 26 28
26 25 24 23 25 23 22 22 21 20 19 19 17 14 14 13 12 10 14 16 14 14 10 11 17 18 19 15 18 21 15 21 20 21 21 21 18 19 17 20 24 14 18 15 20 26 29
27 26 23 22 22 21 20 21 20 20 19 16 18 14 11 14 13 11 13 18 13 8 9 9 16 18 16 18 17 22 16 17 22 22 21 19 18 20 13 17 22 21 16 23 24 26 26
27 24 22 21 20 19 20 20 20 19 18 15 16 14 12 11 12 12 14 16 14 8 10 8 15 18 15 19 20 21 23 15 19 25 24 22 21 25 21 19 21 23 18 23 26 26 26
29 25 22 20 19 18 19 19 20 19 18 15 15 13 11 11 11 12 14 16 16 9 13 9 13 14 14 17 17 21 22 21 19 26 27 27 27 31 29 23 26 28 21 27 28 29 24
27 28 24 21 20 18 18 18 19 19 17 15 15 13 11 9 10 12 14 15 14 12 10 12 5 18 6 16 19 24 23 23 25 24 31 33 35 38 37 34 23 26 27 27 24 27 25
25 27 26 23 21 19 17 18 17 19 20 17 14 15 12 9 10 12 14 16 18 13 12 13 15 9 17 7 18 23 26 25 30 32 32 32 39 34 34 31 26 14 26 28 25 24 26
24 26 27 25 23 21 18 17 17 17 19 19 16 14 15 10 10 12 12 15 16 17 12 17 14 17 14 14 15 23 27 28 27 34 36 38 36 35 33 33 27 23 20 28 27 27 27
22 23 26 25 25 24 22 19 17 16 17 18 17 14 16 12 9 10 15 16 17 15 7 11 19 20 19 14 17 18 21 26 26 34 37 34 32 27 36 38 34 29 23 20 26 23 18
21 20 23 24 25 25 23 22 19 15 16 18 17 14 16 9 8 8 15 15 14 12 2 4 16 15 22 20 10 19 21 27 21 28 35 27 24 35 27 39 35 32 26 15 15 17 18
21 19 20 23 24 25 24 23 21 18 16 16 16 14 14 8 8 7 13 16 11 7 6 4 6 17 21 25 21 13 23 27 22 22 23 26 20 17 29 20 34 32 25 20 16 18 7
21 21 22 22 23 24 25 24 22 21 18 16 14 14 11 8 5 6 10 17 8 6 3 4 6 14 21 28 26 20 24 30 22 18 24 25 24 20 24 29 21 31 29 4 3 6 6
21 21 22 23 24 24 25 25 22 21 19 17 15 13 10 6 5 6 5 18 6 3 13 5 5 9 20 22 26 21 24 25 33 19 16 20 14 26 19 27 30 36 34 13 8 5 4
18 20 22 23 23 23 24 25 25 23 21 18 15 13 9 5 7 8 10 17 7 6 5 7 7 10 19 20 16 26 24 35 33 36 17 16 17 17 33 24 24 35 35 35 6 4 4
17 20 22 24 25 24 23 22 23 23 22 19 15 12 9 5 9 12 17 17 11 13 14 6 9 9 10 18 21 18 20 17 37 36 31 11 8 28 23 25 29 25 36 26 21 7 6
17 20 22 23 23 24 23 21 21 22 22 20 17 14 12 9 9 17 24 23 19 19 14 23 14 12 14 13 23 24 13 22 14 33 39 25 16 6 28 27 28 25 29 32 19 20 5
18 21 22 22 23 24 24 24 21 19 20 20 19 15 15 10 10 18 25 27 19 13 16 17 23 29 20 15 20 27 21 19 16 23 33 40 15 16 19 25 36 36 29 38 23 11 13
19 22 22 23 23 24 24 24 24 22 20 18 18 18 14 11 8 11 15 18 21 27 26 28 23 18 20 21 14 29 28 28 27 23 23 29 19 7 7 21 28 36 38 38 30 20 24
22 23 23 24 24 25 25 24 24 23 21 20 18 14 15 15 11 13 14 17 18 19 22 23 28 28 29 27 23 15 22 20 29 29 29 27 31 22 22 12 19 33 35 42 40 22 21
22 24 25 26 27 26 25 25 25 23 21 18 16 13 14 15 16 17 18 18 19 17 19 20 26 27 25 29 26 27 28 26 26 28 36 37 33 40 39 28 24 21 33 35 38 37 22
24 25 25 26 26 26 26 26 25 23 20 17 14 16 17 19 19 18 18 22 22 21 24 27 28 27 27 26 26 25 22 21 27 22 36 40 24 37 37 35 28 29 24 29 37 40 42
24 25 25 26 26 27 27 26 25 23 20 18 16 14 16 17 17 18 22 21 21 21 21 20 21 24 27 27 27 28 25 25 21 16 21 35 29 21 13 24 19 16 29 30 32 33 33
24 25 26 26 26 26 26 26 25 22 19 18 19 19 19 20 20 21 23 25 26 25 28 28 26 25 24 20 22 25 25 21 21 23 19 20 30 19 8 14 5 15 22 27 25 23 22
24 25 25 25 25 25 25 25 24 22 20 20 20 19 19 23 23 21 23 27 28 27 27 28 25 23 23 20 16 13 14 15 17 20 17 18 20 9 10 9 4 9 19 24 23 18 15
24 24 24 24 25 25 25 25 23 21 21 21 22 23 25 27 27 29 27 27 29 29 26 24 21 19 18 14 12 7 7 5 6 7 14 14 19 15 8 4 6 6 15 20 16 13 13
23 24 23 24 25 26 26 25 25 23 24 25 27 28 30 30 32 32 32 31 31 28 25 20 15 16 15 19 15 10 8 7 7 9 12 14 13 12 10 6 5 12 17 21 13 11 18
23 24 24 25 25 26 26 26 27 27 29 31 31 32 32 34 35 31 29 28 25 23 20 15 11 15 20 20 10 11 10 10 9 12 14 16 13 10 10 5 7 13 21 15 10 21 22
23 24 25 25 26 26 27 28 28 30 31 32 33 34 33 32 31 29 25 22 19 18 17 16 14 6 19 10 14 9 8 6 11 10 14 12 12 10 13 10 12 23 19 15 23 19 21
Wind_Direction
329 330 331 337 341 337 339 331 327 321 317 311 300 289 278 275 271 263 259 264 311 300 262 233 229 222 223 221 214 224 205 207 206 208 209 213 212 206 209 206 204 207 214 213 210 212 202
329 324 324 328 336 334 335 334 328 324 318 321 311 290 277 276 268 253 243 259 264 307 280 236 230 224 222 221 215 218 203 206 207 207 206 209 216 210 208 210 206 211 209 215 208 203 198
337 327 323 323 329 332 334 331 330 327 323 320 321 302 281 278 267 249 242 241 260 274 289 241 233 227 223 209 211 208 211 203 204 207 211 211 209 205 210 205 208 201 205 195 194 194 195
343 338 327 324 325 329 333 333 332 330 326 320 323 312 291 283 273 254 239 234 249 258 277 248 235 231 224 210 207 204 201 201 195 196 203 211 204 201 194 196 200 210 200 182 182 186 190
351 340 338 326 322 326 333 336 336 333 330 324 327 318 301 284 266 258 239 231 245 245 264 242 238 235 222 213 207 203 204 199 196 191 195 195 199 192 187 190 187 194 189 185 187 191 197
360 351 338 336 329 325 328 334 340 337 333 326 327 323 311 294 262 255 238 230 230 232 266 232 235 239 234 221 213 205 203 199 196 194 189 191 196 195 192 186 189 190 189 196 194 195 202
355 359 351 337 332 324 320 329 338 341 337 331 322 327 316 298 270 246 245 233 226 235 248 248 226 228 248 219 209 208 206 203 198 201 195 195 196 201 203 204 200 205 202 202 198 200 205
353 358 359 352 348 332 319 323 329 338 338 335 328 321 320 302 275 242 246 233 235 227 225 260 229 232 230 228 214 207 207 205 204 205 203 200 210 211 205 207 206 208 216 211 208 210 214
354 358 2 360 357 350 334 319 322 327 337 334 331 323 314 303 277 248 231 238 226 224 242 242 255 230 232 236 231 217 208 207 212 208 208 210 221 212 209 211 210 212 217 212 218 217 223
358 359 4 3 2 356 350 337 322 324 330 334 334 322 316 296 278 251 221 231 224 224 246 246 242 233 225 220 224 217 211 210 208 211 211 215 215 220 212 214 214 216 220 225 223 221 217
0 0 2 6 3 1 358 352 342 327 330 332 336 332 327 293 265 244 232 216 222 211 315 233 214 216 214 214 216 212 207 208 217 206 205 213 221 220 220 220 216 222 219 222 222 232 232
6 2 1 6 4 3 3 356 351 338 331 333 336 339 336 312 271 239 222 229 193 201 252 248 215 209 203 203 217 211 202 208 213 214 220 216 222 224 225 227 222 220 216 218 230 225 243
15 10 9 6 2 1 2 1 355 348 337 333 336 339 338 317 282 227 213 219 179 218 248 260 236 215 213 216 210 219 215 207 205 199 213 220 222 223 219 226 214 214 202 122 178 192 234
20 16 16 13 9 5 1 360 357 353 345 337 334 333 338 308 249 203 220 186 225 234 237 265 247 221 213 211 218 216 211 224 215 210 212 207 210 209 209 217 206 206 198 178 199 191 178
9 3 4 1 359 2 2 359 356 355 351 342 333 330 329 308 227 213 183 196 225 228 260 248 233 220 212 213 211 222 227 223 222 214 210 207 216 215 222 222 213 203 204 211 198 174 169
355 353 352 350 348 348 349 353 354 353 352 349 336 325 313 291 233 214 212 228 246 241 247 282 223 221 227 217 222 206 217 238 227 221 216 223 232 227 216 212 213 218 208 201 217 168 227
345 345 346 347 349 346 348 349 346 343 349 348 344 329 311 294 243 215 219 236 256 258 269 256 258 239 223 228 226 225 222 228 231 225 216 222 222 206 218 212 212 206 207 213 218 227 196
337 339 342 345 347 344 344 345 344 341 335 337 341 330 319 306 246 228 230 237 258 265 271 264 268 264 269 231 224 226 228 226 225 224 224 224 237 227 220 218 218 216 216 213 217 212 218
331 333 336 338 341 341 341 339 337 334 330 327 324 327 322 316 278 269 267 262 265 269 267 275 271 275 278 275 270 223 223 228 231 238 228 222 221 197 218 230 223 222 216 216 219 218 224
327 329 329 331 335 335 337 337 333 329 325 321 317 314 314 309 296 279 273 271 265 270 272 264 267 270 275 277 276 265 269 251 230 224 232 226 222 222 232 235 217 221 228 228 226 227 229
324 325 327 327 329 333 334 335 332 329 326 321 311 301 296 290 298 298 289 271 269 275 273 274 273 272 270 270 271 265 271 270 273 247 219 215 224 227 234 239 238 223 223 223 225 229 221
323 324 326 327 327 330 331 332 332 331 329 329 327 311 299 293 293 289 286 284 286 283 272 273 267 271 275 275 275 267 267 269 263 250 234 215 221 224 227 230 233 231 228 218 224 227 233
324 325 326 327 329 330 330 329 331 331 330 328 326 321 320 316 313 305 294 289 286 286 282 274 277 274 269 269 268 269 260 260 256 257 242 227 225 205 207 213 208 221 220 221 223 227 232
324 326 327 327 329 330 328 329 329 330 332 338 335 326 326 318 315 311 307 300 290 282 278 279 274 271 272 273 268 266 267 262 257 246 242 234 226 205 176 159 203 231 218 215 218 220 222
325 326 327 327 328 328 328 330 330 331 333 335 337 333 329 324 322 318 312 303 297 291 284 279 276 269 265 266 264 259 248 248 240 229 225 229 220 176 170 194 257 214 206 201 204 210 209
324 325 325 325 326 327 329 330 329 328 327 329 330 329 324 323 319 314 309 302 296 292 286 280 274 263 253 238 224 228 229 222 210 199 197 199 209 201 168 164 198 205 193 192 185 187 190
321 322 321 321 323 326 327 326 325 322 322 322 321 321 318 315 311 306 301 297 291 285 280 278 272 247 233 217 219 229 226 212 211 190 185 180 195 190 193 219 210 181 176 170 173 185 176
318 319 318 319 322 324 324 324 322 318 316 316 316 315 312 308 305 301 298 293 287 279 270 266 266 233 216 220 227 223 234 218 208 193 179 186 189 187 204 219 224 174 162 167 172 167 157
315 316 316 318 322 322 323 323 321 320 318 317 314 312 310 305 302 299 297 295 289 274 257 250 236 225 211 214 219 219 223 206 208 196 197 191 202 184 191 203 179 163 157 140 138 153 146
Height
3068 3065 3061 3058 3054 3050 3047 3043 3039 3037 3034 3032 3030 3029 3030 3030 3030 3030 3031 3032 3035 3034 3034 3035 3037 3040 3043 3045 3050 3051 3054 3057 3061 3064 3068 3071 3074 3077 3080 3084 3089 3091 3094 3097 3100 3103 3105
3065 3063 3059 3055 3052 3049 3046 3041 3038 3035 3032 3030 3027 3025 3026 3026 3027 3028 3029 3030 3033 3033 3032 3032 3034 3036 3040 3043 3046 3049 3051 3054 3058 3062 3066 3070 3072 3076 3080 3083 3088 3090 3092 3095 3097 3099 3102
3062 3059 3056 3052 3050 3047 3044 3040 3036 3034 3030 3028 3025 3023 3023 3024 3024 3026 3027 3028 3029 3031 3030 3030 3032 3033 3036 3042 3043 3046 3049 3052 3057 3061 3065 3068 3071 3076 3078 3081 3085 3088 3091 3093 3094 3097 3100
3060 3057 3053 3050 3048 3045 3042 3039 3035 3031 3029 3025 3024 3021 3020 3021 3021 3022 3024 3026 3028 3027 3028 3028 3030 3032 3034 3037 3040 3044 3047 3050 3053 3058 3062 3067 3070 3074 3076 3079 3081 3086 3089 3090 3093 3096 3098
3060 3055 3051 3048 3045 3042 3040 3038 3034 3031 3027 3025 3022 3020 3018 3018 3019 3020 3020 3022 3024 3026 3026 3026 3028 3030 3033 3035 3038 3041 3045 3049 3051 3055 3059 3063 3067 3071 3074 3075 3079 3081 3084 3088 3093 3094 3096
3060 3054 3049 3046 3043 3041 3039 3036 3033 3029 3027 3024 3022 3019 3016 3016 3016 3018 3019 3020 3023 3024 3026 3024 3026 3032 3030 3033 3036 3039 3043 3046 3049 3052 3056 3059 3063 3065 3069 3071 3073 3077 3082 3086 3088 3092 3093
3060 3054 3049 3044 3042 3039 3037 3035 3033 3030 3026 3022 3020 3018 3015 3014 3014 3015 3017 3019 3023 3025 3024 3024 3025 3027 3028 3030 3033 3036 3040 3043 3046 3050 3051 3055 3057 3057 3061 3067 3072 3077 3081 3083 3086 3088 3092
3059 3053 3049 3044 3040 3037 3034 3032 3030 3027 3024 3021 3018 3017 3015 3012 3012 3013 3015 3016 3018 3021 3022 3021 3022 3024 3026 3028 3030 3033 3037 3040 3042 3045 3049 3053 3050 3056 3063 3068 3072 3075 3077 3081 3084 3087 3091
3059 3054 3049 3044 3039 3035 3032 3029 3027 3025 3022 3020 3017 3015 3013 3011 3011 3011 3014 3015 3016 3018 3019 3020 3020 3021 3024 3027 3028 3030 3033 3035 3039 3041 3043 3045 3047 3054 3060 3065 3069 3072 3074 3077 3083 3085 3087
3059 3054 3049 3044 3040 3035 3032 3029 3026 3023 3021 3018 3016 3013 3011 3009 3010 3010 3012 3012 3015 3016 3017 3017 3017 3017 3020 3023 3025 3027 3030 3035 3035 3038 3042 3046 3048 3051 3055 3059 3065 3068 3073 3077 3080 3083 3084
3058 3054 3049 3045 3041 3035 3032 3029 3026 3022 3020 3017 3015 3012 3010 3007 3007 3008 3011 3011 3015 3017 3018 3013 3011 3012 3016 3020 3022 3023 3027 3030 3032 3034 3040 3041 3043 3047 3050 3053 3061 3066 3071 3075 3078 3079 3080
3058 3054 3050 3046 3042 3037 3033 3029 3025 3022 3019 3016 3014 3011 3009 3007 3006 3008 3009 3011 3014 3020 3014 3010 3009 3010 3013 3015 3018 3021 3024 3028 3031 3034 3035 3039 3042 3045 3049 3052 3058 3063 3068 3072 3074 3076 3076
3059 3055 3050 3047 3043 3038 3033 3029 3026 3022 3018 3015 3012 3010 3007 3006 3007 3007 3009 3011 3015 3012 3010 3008 3007 3008 3010 3012 3015 3019 3020 3023 3026 3029 3030 3034 3038 3041 3044 3048 3051 3056 3061 3070 3075 3074 3067
3061 3057 3053 3048 3045 3040 3034 3029 3025 3021 3017 3015 3012 3010 3008 3006 3005 3007 3008 3013 3012 3007 3006 3006 3007 3007 3009 3011 3013 3015 3016 3018 3021 3025 3026 3030 3034 3034 3037 3039 3041 3045 3052 3053 3058 3060 3060
3061 3057 3053 3049 3045 3040 3035 3031 3027 3023 3018 3014 3011 3011 3009 3007 3007 3007 3008 3009 3006 3005 3005 3005 3005 3005 3007 3007 3010 3012 3013 3012 3015 3018 3024 3025 3027 3028 3033 3036 3039 3041 3043 3050 3050 3051 3053
3061 3057 3053 3049 3045 3041 3036 3031 3027 3021 3018 3014 3010 3007 3007 3006 3005 3007 3008 3004 3003 3003 3003 3003 3003 3003 3003 3004 3005 3006 3008 3007 3010 3015 3018 3021 3023 3022 3028 3031 3033 3033 3040 3044 3044 3048 3048
3059 3056 3053 3048 3043 3038 3034 3030 3027 3023 3019 3014 3009 3008 3006 3004 3003 3003 3002 3003 3001 3002 3002 3002 3001 3000 3000 3001 3001 3001 3002 3004 3005 3009 3014 3017 3019 3020 3021 3022 3025 3029 3030 3034 3036 3037 3034
3058 3055 3051 3046 3042 3037 3032 3028 3024 3021 3016 3013 3010 3005 3002 3003 3004 3001 2998 2999 3000 3000 3000 2998 2997 2996 2997 2997 2997 2997 2996 3000 3001 3005 3006 3011 3011 3013 3015 3015 3017 3019 3024 3026 3027 3028 3029
3056 3053 3049 3045 3040 3036 3031 3027 3023 3018 3014 3011 3008 3006 3002 2999 3000 2999 2997 2996 2996 2997 2997 2995 2994 2992 2992 2992 2994 2991 2991 2993 2996 2998 2998 3002 3003 3006 3009 3012 3009 3011 3014 3018 3021 3024 3022
3054 3051 3046 3042 3038 3033 3029 3024 3020 3016 3012 3009 3007 3003 3001 2999 2996 2996 2995 2993 2992 2991 2992 2992 2990 2989 2989 2988 2988 2986 2986 2988 2989 2990 2993 2996 2996 2995 2996 2998 3001 3003 3007 3011 3015 3016 3016
3050 3047 3043 3039 3035 3032 3027 3022 3017 3012 3009 3006 3002 2999 2997 2994 2994 2994 2992 2989 2988 2989 2987 2987 2985 2985 2985 2983 2982 2981 2982 2982 2983 2983 2984 2986 2986 2989 2991 2993 2995 2997 2999 3002 3006 3009 3011
3047 3043 3040 3036 3031 3028 3024 3020 3014 3009 3006 3004 3001 3001 2996 2993 2990 2988 2987 2985 2983 2982 2982 2980 2980 2981 2979 2977 2978 2976 2977 2977 2977 2975 2976 2976 2977 2979 2982 2986 2989 2991 2994 2996 2999 3001 3003
3043 3040 3036 3032 3028 3024 3020 3015 3012 3007 3004 3000 2997 2994 2991 2990 2986 2985 2982 2981 2979 2977 2975 2974 2973 2973 2972 2973 2972 2970 2971 2971 2971 2971 2970 2972 2973 2973 2976 2979 2983 2987 2984 2987 2991 2994 2997
3039 3036 3033 3028 3023 3020 3016 3011 3007 3003 2999 2997 2995 2993 2988 2987 2985 2981 2978 2976 2973 2972 2970 2968 2968 2967 2967 2966 2965 2964 2964 2964 2964 2965 2966 2966 2969 2971 2973 2978 2981 2972 2977 2981 2985 2988 2991
3036 3032 3029 3026 3021 3016 3012 3008 3003 3001 2997 2994 2990 2988 2984 2981 2978 2976 2973 2971 2968 2965 2963 2961 2960 2960 2959 2960 2960 2960 2960 2959 2957 2958 2960 2962 2964 2966 2970 2973 2974 2971 2971 2975 2979 2985 2988
3031 3028 3025 3021 3018 3014 3010 3006 3001 2997 2993 2990 2986 2983 2980 2976 2971 2968 2965 2963 2961 2958 2956 2954 2954 2953 2954 2955 2956 2955 2955 2955 2953 2953 2955 2959 2961 2964 2966 2969 2969 2968 2968 2973 2978 2983 2986
3027 3024 3021 3018 3013 3009 3006 3002 2999 2995 2990 2987 2982 2977 2974 2970 2966 2963 2958 2955 2953 2951 2949 2948 2948 2947 2950 2950 2951 2952 2952 2952 2951 2951 2953 2955 2958 2960 2964 2965 2966 2966 2967 2973 2979 2984 2984
3023 3020 3016 3013 3009 3005 3002 2998 2994 2990 2986 2982 2977 2972 2967 2963 2957 2953 2949 2947 2945 2944 2943 2944 2945 2943 2946 2948 2949 2947 2947 2947 2948 2948 2949 2952 2956 2957 2962 2964 2965 2965 2968 2973 2976 2978 2985
3018 3014 3012 3008 3004 2999 2996 2992 2988 2983 2978 2974 2970 2965 2959 2956 2951 2946 2941 2939 2938 2938 2938 2939 2940 2940 2941 2943 2944 2943 2943 2943 2944 2946 2948 2952 2951 2953 2958 2959 2959 2963 2968 2972 2976 2983 2986